TKY91L LYPG-LFOB

Flight info

Callsign TKY91L
Flight time 2h 20m
Altitude 34000
Route NIK DCT GACMO DCT BARIT DCT VELIT DCT SAL DCT BAXON DCT AOSTA DCT ORSUD DCT MOLUS DCT UNKIR DCT GIVRI DCT TINIL
Aircraft B738/M-SDE2E3FGHIRWXY/LB1

Departure

Time 2026-05-04 16:03
Airport Podgorica Airport / Podgorica Golubovci Airbase (LYPG)

Arrival

Time 2026-05-04 18:24
Airport Beauvais-Tillé airport (LFOB)
Time Latitude Longitude Altitude Speed Heading
2026-05-04 15:38 42.36742 19.24752 105 ft 0 kts 324°
2026-05-04 15:56 42.36743 19.24752 105 ft 0 kts 326°
2026-05-04 15:57 42.36744 19.24753 105 ft 0 kts 346°
2026-05-04 15:57 42.36746 19.24754 105 ft 0 kts
2026-05-04 15:57 42.36748 19.24759 105 ft 1 kts 48°
2026-05-04 15:58 42.36746 19.24767 103 ft 1 kts 101°
2026-05-04 15:58 42.36744 19.24777 104 ft 1 kts 101°
2026-05-04 15:58 42.36743 19.24787 105 ft 1 kts 101°
2026-05-04 15:58 42.36741 19.24804 105 ft 3 kts 95°
2026-05-04 15:59 42.36755 19.24829 103 ft 4 kts 37°
2026-05-04 15:59 42.36790 19.24839 105 ft 6 kts
2026-05-04 15:59 42.36839 19.24844 105 ft 7 kts
2026-05-04 15:59 42.36888 19.24849 103 ft 7 kts
2026-05-04 16:00 42.36928 19.24879 104 ft 7 kts 62°
2026-05-04 16:00 42.36932 19.24943 105 ft 7 kts 96°
2026-05-04 16:00 42.36928 19.25007 108 ft 7 kts 87°
2026-05-04 16:00 42.36958 19.25053 108 ft 7 kts 21°
2026-05-04 16:01 42.37006 19.25058 107 ft 7 kts
2026-05-04 16:01 42.37054 19.25062 109 ft 7 kts
2026-05-04 16:01 42.37087 19.25079 108 ft 3 kts 77°
2026-05-04 16:01 42.37087 19.25128 106 ft 8 kts 97°
2026-05-04 16:02 42.37072 19.25221 102 ft 11 kts 119°
2026-05-04 16:02 42.37017 19.25294 102 ft 11 kts 170°
2026-05-04 16:02 42.36348 19.25229 107 ft 110 kts 184°
2026-05-04 16:03 42.35386 19.25132 123 ft 163 kts 184°
2026-05-04 16:03 42.34194 19.24996 648 ft 173 kts 184°
2026-05-04 16:03 42.32936 19.24871 1177 ft 191 kts 184°
2026-05-04 16:03 42.31554 19.24811 1786 ft 205 kts 182°
2026-05-04 16:04 42.30123 19.24726 2485 ft 206 kts 189°
2026-05-04 16:04 42.27680 19.22545 3428 ft 234 kts 245°
2026-05-04 16:04 42.27464 19.20340 3959 ft 246 kts 280°
2026-05-04 16:05 42.28176 19.18245 4742 ft 249 kts 311°
2026-05-04 16:05 42.29606 19.16981 5575 ft 248 kts 345°
2026-05-04 16:05 42.33003 19.16307 7301 ft 245 kts 354°
2026-05-04 16:06 42.34704 19.16034 8072 ft 248 kts 354°
2026-05-04 16:06 42.39471 19.15207 9817 ft 270 kts 354°
2026-05-04 16:07 42.41958 19.14747 10729 ft 276 kts 353°
2026-05-04 16:07 42.47726 19.13653 12997 ft 283 kts 354°
2026-05-04 16:08 42.49681 19.13277 13766 ft 285 kts 354°
2026-05-04 16:08 42.55558 19.11525 15691 ft 299 kts 331°
2026-05-04 16:09 42.59240 19.08358 16155 ft 335 kts 329°
2026-05-04 16:09 42.63346 19.04765 16738 ft 362 kts 329°
2026-05-04 16:10 42.67605 19.01061 17063 ft 361 kts 329°
2026-05-04 16:11 42.73984 18.95537 17081 ft 362 kts 329°
2026-05-04 16:11 42.76107 18.93698 17080 ft 361 kts 329°
2026-05-04 16:12 42.82289 18.87863 17089 ft 362 kts 325°
2026-05-04 16:12 42.88384 18.81727 17089 ft 364 kts 326°
2026-05-04 16:13 42.92471 18.77643 17082 ft 364 kts 325°
2026-05-04 16:13 42.96561 18.73564 17087 ft 364 kts 325°
2026-05-04 16:14 43.00652 18.69480 17089 ft 364 kts 325°
2026-05-04 16:14 43.04708 18.65422 17098 ft 363 kts 325°
2026-05-04 16:15 43.10832 18.59286 17090 ft 364 kts 325°
2026-05-04 16:16 43.14297 18.54257 17101 ft 370 kts 300°
2026-05-04 16:16 43.16399 18.43997 17107 ft 376 kts 284°
2026-05-04 16:17 43.17536 18.36988 17091 ft 376 kts 284°
2026-05-04 16:18 43.19304 18.26381 18514 ft 390 kts 285°
2026-05-04 16:18 43.19921 18.22717 18917 ft 397 kts 285°
2026-05-04 16:19 43.21786 18.11594 20602 ft 401 kts 285°
2026-05-04 16:19 43.23039 18.04089 21607 ft 406 kts 285°
2026-05-04 16:20 43.24929 17.92702 23090 ft 413 kts 285°
2026-05-04 16:20 43.26206 17.84964 23970 ft 418 kts 284°
2026-05-04 16:21 43.28084 17.73193 25166 ft 423 kts 284°
2026-05-04 16:22 43.29334 17.65272 25936 ft 426 kts 284°
2026-05-04 16:22 43.31224 17.53257 26987 ft 432 kts 284°
2026-05-04 16:23 43.33118 17.41134 27970 ft 437 kts 284°
2026-05-04 16:24 43.35913 17.24798 29453 ft 436 kts 292°
2026-05-04 16:25 43.38158 17.17113 30384 ft 431 kts 294°
2026-05-04 16:26 43.42626 17.01930 31772 ft 427 kts 293°
2026-05-04 16:26 43.45885 16.90572 32822 ft 422 kts 293°
2026-05-04 16:27 43.48023 16.83067 33461 ft 421 kts 293°
2026-05-04 16:28 43.51214 16.71834 34094 ft 422 kts 293°
2026-05-04 16:29 43.58627 16.45541 34108 ft 421 kts 292°
2026-05-04 16:31 43.63893 16.26695 34112 ft 421 kts 291°
2026-05-04 16:32 43.70176 16.04016 34113 ft 424 kts 291°
2026-05-04 16:33 43.74363 15.88785 34103 ft 423 kts 290°
2026-05-04 16:34 43.77486 15.77365 34106 ft 422 kts 290°
2026-05-04 16:35 43.83650 15.54662 34101 ft 417 kts 289°
2026-05-04 16:36 43.86677 15.43431 34103 ft 415 kts 289°
2026-05-04 16:37 43.89689 15.32207 34101 ft 413 kts 289°
2026-05-04 16:38 43.93721 15.17103 34105 ft 425 kts 289°
2026-05-04 16:39 43.99208 14.98044 34082 ft 425 kts 291°
2026-05-04 16:40 44.03588 14.82842 34082 ft 425 kts 290°
2026-05-04 16:41 44.09042 14.63708 34086 ft 427 kts 290°
2026-05-04 16:43 44.14483 14.44475 34082 ft 428 kts 290°
2026-05-04 16:43 44.17748 14.32863 34082 ft 429 kts 290°
2026-05-04 16:45 44.24232 14.09633 34081 ft 429 kts 290°
2026-05-04 16:46 44.29248 13.91514 34088 ft 429 kts 290°
2026-05-04 16:47 44.33497 13.76058 34078 ft 426 kts 290°
2026-05-04 16:48 44.37703 13.60658 34085 ft 422 kts 289°
2026-05-04 16:49 44.41864 13.45323 34078 ft 421 kts 289°
2026-05-04 16:50 44.45818 13.29971 34069 ft 420 kts 288°
2026-05-04 16:51 44.48763 13.18410 34074 ft 420 kts 288°
2026-05-04 16:52 44.52681 13.02998 34061 ft 419 kts 288°
2026-05-04 16:53 44.55604 12.91439 34059 ft 419 kts 288°
2026-05-04 16:54 44.59466 12.76077 34064 ft 418 kts 288°
2026-05-04 16:55 44.65219 12.53004 34074 ft 417 kts 288°
2026-05-04 16:56 44.69959 12.33812 34090 ft 416 kts 288°
2026-05-04 16:57 44.72794 12.22259 34094 ft 416 kts 288°
2026-05-04 16:58 44.76559 12.06822 34095 ft 417 kts 287°
2026-05-04 17:00 44.82169 11.83621 34116 ft 419 kts 287°
2026-05-04 17:01 44.86833 11.64148 34113 ft 419 kts 287°
2026-05-04 17:02 44.90542 11.48540 34139 ft 419 kts 286°
2026-05-04 17:03 44.93297 11.36877 34128 ft 419 kts 286°
2026-05-04 17:03 44.96055 11.25137 34128 ft 419 kts 286°
2026-05-04 17:04 44.99686 11.09588 34120 ft 418 kts 286°
2026-05-04 17:05 45.03305 10.93976 34083 ft 417 kts 286°
2026-05-04 17:06 45.06002 10.82272 34083 ft 417 kts 286°
2026-05-04 17:07 45.08382 10.71888 34082 ft 417 kts 285°
2026-05-04 17:07 45.10458 10.62792 34088 ft 417 kts 285°
2026-05-04 17:08 45.13126 10.51042 34086 ft 418 kts 285°
2026-05-04 17:09 45.14896 10.43212 34069 ft 418 kts 285°
2026-05-04 17:09 45.16663 10.35366 34072 ft 418 kts 285°
2026-05-04 17:10 45.21065 10.15700 34050 ft 418 kts 285°
2026-05-04 17:11 45.22817 10.07821 34057 ft 418 kts 285°
2026-05-04 17:12 45.25420 9.96058 34055 ft 418 kts 284°
2026-05-04 17:13 45.29752 9.76338 34081 ft 418 kts 284°
2026-05-04 17:14 45.33154 9.60722 34123 ft 418 kts 284°
2026-05-04 17:15 45.35710 9.48912 34138 ft 418 kts 284°
2026-05-04 17:16 45.39106 9.33113 34058 ft 417 kts 283°
2026-05-04 17:17 45.42483 9.17286 34048 ft 418 kts 284°
2026-05-04 17:18 45.45831 9.01471 34055 ft 418 kts 283°
2026-05-04 17:19 45.49163 8.85608 34078 ft 418 kts 283°
2026-05-04 17:20 45.52474 8.69726 34074 ft 418 kts 283°
2026-05-04 17:20 45.54945 8.57792 34078 ft 418 kts 283°
2026-05-04 17:21 45.59954 8.43007 34059 ft 432 kts 315°
2026-05-04 17:22 45.65043 8.38409 34080 ft 439 kts 327°
2026-05-04 17:23 45.75839 8.30162 34097 ft 440 kts 327°
2026-05-04 17:24 45.83889 8.23798 34105 ft 441 kts 326°
2026-05-04 17:24 45.89870 8.14534 34117 ft 419 kts 290°
2026-05-04 17:25 45.90851 8.10674 34107 ft 415 kts 283°
2026-05-04 17:26 45.93884 7.94682 34091 ft 415 kts 282°
2026-05-04 17:27 45.97778 7.74704 34112 ft 416 kts 282°
2026-05-04 17:28 46.00882 7.58693 34086 ft 415 kts 281°
2026-05-04 17:29 46.05545 7.48453 34037 ft 442 kts 329°
2026-05-04 17:29 46.13901 7.42880 34050 ft 440 kts 327°
2026-05-04 17:31 46.26629 7.30901 34059 ft 440 kts 319°
2026-05-04 17:32 46.39160 7.17936 34050 ft 445 kts 319°
2026-05-04 17:33 46.49155 7.07223 34004 ft 441 kts 305°
2026-05-04 17:34 46.52709 6.95563 34035 ft 420 kts 277°
2026-05-04 17:34 46.53614 6.91504 34027 ft 428 kts 291°
2026-05-04 17:35 46.61112 6.74285 34037 ft 431 kts 296°
2026-05-04 17:36 46.64120 6.66751 34037 ft 430 kts 294°
2026-05-04 17:36 46.66926 6.59089 34044 ft 428 kts 292°
2026-05-04 17:37 46.69902 6.51520 34039 ft 430 kts 295°
2026-05-04 17:37 46.72975 6.44084 34044 ft 431 kts 296°
2026-05-04 17:38 46.76093 6.36604 34045 ft 432 kts 296°
2026-05-04 17:38 46.79218 6.29120 34042 ft 432 kts 296°
2026-05-04 17:39 46.83853 6.17825 34020 ft 432 kts 295°
2026-05-04 17:39 46.86827 6.10187 34027 ft 431 kts 293°
2026-05-04 17:40 46.89674 6.02521 34009 ft 432 kts 293°
2026-05-04 17:40 46.92522 5.94771 34004 ft 432 kts 293°
2026-05-04 17:41 46.95364 5.87007 34006 ft 433 kts 292°
2026-05-04 17:41 46.98207 5.79218 33997 ft 433 kts 292°
2026-05-04 17:42 47.01391 5.71686 34003 ft 443 kts 307°
2026-05-04 17:42 47.05949 5.65502 34003 ft 448 kts 313°
2026-05-04 17:43 47.10564 5.59444 33976 ft 448 kts 313°
2026-05-04 17:43 47.15170 5.53262 33968 ft 446 kts 312°
2026-05-04 17:44 47.17452 5.50174 33604 ft 443 kts 312°
2026-05-04 17:44 47.19692 5.47139 33236 ft 436 kts 312°
2026-05-04 17:44 47.21907 5.44130 32856 ft 431 kts 312°
2026-05-04 17:44 47.24094 5.41157 32426 ft 427 kts 312°
2026-05-04 17:45 47.26273 5.38193 32046 ft 424 kts 312°
2026-05-04 17:45 47.28446 5.35264 31641 ft 423 kts 314°
2026-05-04 17:45 47.30833 5.32695 31216 ft 427 kts 325°
2026-05-04 17:45 47.33423 5.30565 30833 ft 425 kts 327°
2026-05-04 17:46 47.36033 5.28501 30431 ft 424 kts 327°
2026-05-04 17:46 47.38626 5.26454 30039 ft 422 kts 327°
2026-05-04 17:46 47.41204 5.24395 29584 ft 420 kts 327°
2026-05-04 17:46 47.43725 5.22357 29159 ft 417 kts 327°
2026-05-04 17:47 47.46254 5.20295 28740 ft 414 kts 326°
2026-05-04 17:47 47.48762 5.18240 28359 ft 410 kts 326°
2026-05-04 17:47 47.51251 5.16195 27947 ft 407 kts 326°
2026-05-04 17:47 47.53717 5.14169 27550 ft 404 kts 326°
2026-05-04 17:48 47.56163 5.12158 27171 ft 401 kts 326°
2026-05-04 17:48 47.58599 5.10146 26785 ft 398 kts 325°
2026-05-04 17:48 47.60857 5.07833 26391 ft 391 kts 315°
2026-05-04 17:48 47.62908 5.05226 26015 ft 387 kts 313°
2026-05-04 17:49 47.64908 5.02557 25647 ft 384 kts 313°
2026-05-04 17:49 47.66899 4.99922 25261 ft 383 kts 314°
2026-05-04 17:49 47.68877 4.97367 24885 ft 382 kts 315°
2026-05-04 17:49 47.70891 4.94813 24514 ft 380 kts 315°
2026-05-04 17:50 47.72898 4.92281 24140 ft 378 kts 315°
2026-05-04 17:50 47.74899 4.89760 23743 ft 377 kts 315°
2026-05-04 17:50 47.76898 4.87240 23286 ft 376 kts 315°
2026-05-04 17:50 47.78890 4.84726 22832 ft 375 kts 315°
2026-05-04 17:51 47.80874 4.82221 22403 ft 373 kts 315°
2026-05-04 17:51 47.82846 4.79726 21984 ft 371 kts 315°
2026-05-04 17:51 47.84806 4.77245 21579 ft 369 kts 315°
2026-05-04 17:51 47.86751 4.74779 21178 ft 366 kts 315°
2026-05-04 17:52 47.88694 4.72314 20773 ft 364 kts 315°
2026-05-04 17:52 47.90612 4.69876 20378 ft 362 kts 315°
2026-05-04 17:52 47.92525 4.67442 19994 ft 360 kts 315°
2026-05-04 17:52 47.94419 4.65030 19617 ft 357 kts 316°
2026-05-04 17:53 47.96308 4.62623 19231 ft 356 kts 316°
2026-05-04 17:53 47.98159 4.60261 18876 ft 353 kts 316°
2026-05-04 17:53 48.00017 4.57888 18436 ft 353 kts 316°
2026-05-04 17:53 48.01873 4.55515 18055 ft 350 kts 316°
2026-05-04 17:54 48.03719 4.53153 17630 ft 348 kts 316°
2026-05-04 17:54 48.05556 4.50800 17231 ft 346 kts 316°
2026-05-04 17:54 48.07375 4.48468 16847 ft 343 kts 316°
2026-05-04 17:54 48.09174 4.46161 16525 ft 339 kts 316°
2026-05-04 17:55 48.10963 4.43863 16123 ft 338 kts 316°
2026-05-04 17:55 48.12744 4.41573 15742 ft 336 kts 316°
2026-05-04 17:55 48.14624 4.39495 15370 ft 337 kts 326°
2026-05-04 17:55 48.16676 4.37815 15011 ft 336 kts 330°
2026-05-04 17:56 48.18762 4.36244 14645 ft 335 kts 331°
2026-05-04 17:56 48.20810 4.34702 14284 ft 333 kts 330°
2026-05-04 17:56 48.22871 4.33119 13923 ft 332 kts 330°
2026-05-04 17:56 48.24912 4.31522 13539 ft 330 kts 329°
2026-05-04 17:57 48.26941 4.29915 13133 ft 329 kts 329°
2026-05-04 17:57 48.28953 4.28311 12769 ft 327 kts 329°
2026-05-04 17:57 48.30953 4.26711 12409 ft 324 kts 330°
2026-05-04 17:57 48.32939 4.25121 12049 ft 322 kts 330°
2026-05-04 17:58 48.34906 4.23535 11761 ft 318 kts 329°
2026-05-04 17:58 48.36834 4.21958 11512 ft 313 kts 330°
2026-05-04 17:58 48.38728 4.20402 11262 ft 308 kts 330°
2026-05-04 17:58 48.40593 4.18868 11012 ft 303 kts 330°
2026-05-04 17:59 48.42435 4.17353 10776 ft 299 kts 330°
2026-05-04 17:59 48.44248 4.15861 10546 ft 296 kts 330°
2026-05-04 17:59 48.47832 4.12910 10078 ft 290 kts 330°
2026-05-04 18:00 48.49590 4.11461 9848 ft 287 kts 330°
2026-05-04 18:00 48.51328 4.10028 9601 ft 283 kts 330°
2026-05-04 18:00 48.53044 4.08612 9360 ft 279 kts 330°
2026-05-04 18:00 48.54743 4.07209 9139 ft 277 kts 330°
2026-05-04 18:01 48.56431 4.05814 8922 ft 277 kts 330°
2026-05-04 18:01 48.58097 4.04419 8710 ft 277 kts 327°
2026-05-04 18:01 48.59658 4.02734 8451 ft 275 kts 321°
2026-05-04 18:02 48.62604 3.99046 7954 ft 281 kts 319°
2026-05-04 18:02 48.64183 3.97051 7742 ft 308 kts 319°
2026-05-04 18:02 48.65893 3.94904 7515 ft 335 kts 320°
2026-05-04 18:02 48.67734 3.92611 7275 ft 346 kts 320°
2026-05-04 18:03 48.69595 3.90306 7043 ft 346 kts 320°
2026-05-04 18:03 48.71462 3.88004 6967 ft 346 kts 320°
2026-05-04 18:03 48.73324 3.85712 6947 ft 344 kts 320°
2026-05-04 18:03 48.75183 3.83428 6939 ft 345 kts 320°
2026-05-04 18:04 48.77050 3.81132 6938 ft 345 kts 320°
2026-05-04 18:04 48.78913 3.78839 6935 ft 344 kts 320°
2026-05-04 18:04 48.82613 3.74280 6946 ft 345 kts 320°
2026-05-04 18:05 48.84472 3.71987 6949 ft 345 kts 320°
2026-05-04 18:05 48.86337 3.69683 6952 ft 345 kts 320°
2026-05-04 18:05 48.88196 3.67384 6945 ft 345 kts 320°
2026-05-04 18:05 48.90065 3.65073 6945 ft 345 kts 320°
2026-05-04 18:06 48.93785 3.60463 6947 ft 345 kts 320°
2026-05-04 18:06 48.95644 3.58155 6943 ft 345 kts 320°
2026-05-04 18:06 48.97504 3.55845 6955 ft 345 kts 320°
2026-05-04 18:07 48.99342 3.53558 6943 ft 346 kts 320°
2026-05-04 18:07 49.01206 3.51239 6941 ft 345 kts 321°
2026-05-04 18:07 49.03065 3.48922 6947 ft 345 kts 321°
2026-05-04 18:07 49.04925 3.46601 6943 ft 345 kts 321°
2026-05-04 18:08 49.06778 3.44288 6946 ft 344 kts 321°
2026-05-04 18:08 49.08649 3.41950 6954 ft 351 kts 321°
2026-05-04 18:08 49.10536 3.39590 6941 ft 347 kts 321°
2026-05-04 18:08 49.12381 3.37279 6932 ft 339 kts 321°
2026-05-04 18:09 49.15937 3.32819 6930 ft 323 kts 321°
2026-05-04 18:09 49.19347 3.28533 6932 ft 311 kts 321°
2026-05-04 18:10 49.21002 3.26451 6934 ft 305 kts 321°
2026-05-04 18:10 49.22622 3.24412 6931 ft 298 kts 321°
2026-05-04 18:10 49.24212 3.22406 6936 ft 294 kts 321°
2026-05-04 18:10 49.25776 3.20434 6901 ft 288 kts 321°
2026-05-04 18:11 49.27276 3.18539 6827 ft 278 kts 321°
2026-05-04 18:11 49.28743 3.16685 6744 ft 269 kts 321°
2026-05-04 18:11 49.30171 3.14880 6542 ft 264 kts 321°
2026-05-04 18:11 49.31589 3.13087 6272 ft 264 kts 321°
2026-05-04 18:12 49.33001 3.11298 5993 ft 263 kts 321°
2026-05-04 18:12 49.34410 3.09513 5712 ft 262 kts 321°
2026-05-04 18:12 49.35736 3.07606 5409 ft 263 kts 306°
2026-05-04 18:12 49.36624 3.05175 5225 ft 260 kts 297°
2026-05-04 18:13 49.37437 3.02694 5084 ft 261 kts 297°
2026-05-04 18:13 49.38254 3.00200 5004 ft 263 kts 297°
2026-05-04 18:13 49.39892 2.95242 4972 ft 259 kts 297°
2026-05-04 18:14 49.40693 2.92830 4906 ft 249 kts 298°
2026-05-04 18:14 49.41492 2.90429 4656 ft 255 kts 297°
2026-05-04 18:14 49.42241 2.87955 4515 ft 258 kts 286°
2026-05-04 18:15 49.41965 2.82513 4350 ft 260 kts 257°
2026-05-04 18:15 49.41151 2.77076 4181 ft 261 kts 257°
2026-05-04 18:15 49.40737 2.74370 4128 ft 259 kts 257°
2026-05-04 18:16 49.40324 2.71677 4067 ft 259 kts 257°
2026-05-04 18:16 49.39912 2.68994 4022 ft 258 kts 257°
2026-05-04 18:16 49.39503 2.66349 3970 ft 250 kts 257°
2026-05-04 18:17 49.38705 2.61353 3926 ft 238 kts 257°
2026-05-04 18:17 49.38308 2.58896 3914 ft 237 kts 257°
2026-05-04 18:17 49.37519 2.54027 3895 ft 233 kts 257°
2026-05-04 18:18 49.37127 2.51609 3777 ft 233 kts 257°
2026-05-04 18:18 49.36734 2.49193 3489 ft 234 kts 257°
2026-05-04 18:18 49.36339 2.46761 3226 ft 234 kts 257°
2026-05-04 18:18 49.35944 2.44334 2966 ft 234 kts 257°
2026-05-04 18:19 49.35231 2.39489 2513 ft 232 kts 261°
2026-05-04 18:19 49.34972 2.37067 2340 ft 229 kts 264°
2026-05-04 18:19 49.35197 2.34721 2237 ft 220 kts 302°
2026-05-04 18:20 49.36102 2.32956 2191 ft 204 kts 308°
2026-05-04 18:20 49.36868 2.31194 2084 ft 195 kts 304°
2026-05-04 18:20 49.37567 2.29518 1998 ft 182 kts 304°
2026-05-04 18:20 49.38242 2.27941 1995 ft 173 kts 305°
2026-05-04 18:21 49.38893 2.26430 1996 ft 166 kts 305°
2026-05-04 18:21 49.39524 2.24971 2023 ft 163 kts 305°
2026-05-04 18:21 49.40145 2.23532 1977 ft 158 kts 305°
2026-05-04 18:21 49.40734 2.22166 1768 ft 149 kts 306°
2026-05-04 18:22 49.41299 2.20859 1572 ft 145 kts 306°
2026-05-04 18:22 49.41859 2.19566 1391 ft 146 kts 306°
2026-05-04 18:22 49.42422 2.18265 1224 ft 145 kts 305°
2026-05-04 18:22 49.42963 2.16966 993 ft 144 kts 302°
2026-05-04 18:23 49.43515 2.15685 720 ft 144 kts 307°
2026-05-04 18:23 49.43893 2.14872 606 ft 139 kts 305°
2026-05-04 18:23 49.44410 2.13649 419 ft 134 kts 305°
2026-05-04 18:23 49.44919 2.12487 322 ft 121 kts 302°
2026-05-04 18:24 49.45270 2.11677 333 ft 60 kts 303°
2026-05-04 18:24 49.45395 2.11392 338 ft 16 kts 303°
2026-05-04 18:24 49.45455 2.11307 350 ft 10 kts
2026-05-04 18:24 49.45511 2.11375 337 ft 10 kts 41°
2026-05-04 18:25 49.45563 2.11445 345 ft 10 kts 41°
2026-05-04 18:25 49.45613 2.11514 344 ft 10 kts 41°
2026-05-04 18:25 49.45663 2.11580 349 ft 9 kts 41°
2026-05-04 18:25 49.45719 2.11619 346 ft 9 kts 345°
2026-05-04 18:26 49.45766 2.11555 351 ft 9 kts 310°
2026-05-04 18:26 49.45797 2.11487 351 ft 5 kts 278°
2026-05-04 18:26 49.45798 2.11475 351 ft 0 kts 273°
2026-05-04 18:27 49.45799 2.11471 352 ft 1 kts 295°
2026-05-04 18:27 49.45810 2.11449 350 ft 4 kts 314°
2026-05-04 18:27 49.45828 2.11420 350 ft 4 kts 312°
2026-05-04 18:27 49.45845 2.11391 346 ft 4 kts 312°
2026-05-04 18:28 49.45855 2.11374 352 ft 1 kts 311°
2026-05-04 18:28 49.45856 2.11371 353 ft 0 kts 311°